Demopolis Municipal Airport, AL

8:14 AM CDT on September 16, 2019 (GMT -0500)
Demopolis Municipal Airport

Weather History for KDYA - July, 2019

Change the Weather History Date:

Sunday, July 14, 2019

  Actual Average (KNMM) Record (KNMM)
Temperature  
Mean Temperature 78 °F -  
Max Temperature 85 °F 89 °F 99 °F (2010)
Min Temperature 71 °F 69 °F 64 °F (1999)
Cooling Degree Days 13    
Growing Degree Days 28 (Base 50)    
Moisture  
Dew Point 73 °F    
Average Humidity 92    
Maximum Humidity 100    
Minimum Humidity 73    
Precipitation  
Precipitation 0.00 in - - ()
Sea Level Pressure  
Sea Level Pressure 30.10 in    
Wind  
Wind Speed 2 mph (ESE)    
Max Wind Speed 9 mph    
Max Gust Speed -    
Visibility 7 miles    
Events Rain    
Averages and records for this station are not official NWS values.
T = Trace of Precipitation, MM = Missing Value Source: NWS Daily Summary

Daily Weather History Graph

Daily Weather History Graph

Search for Another Location

Airport or City:

Astronomy

Jul. 14, 2019 Rise Set
Actual Time 5:54 AM CDT 8:00 PM CDT
Civil Twilight 5:26 AM CDT 8:28 PM CDT
Nautical Twilight 4:52 AM CDT 9:02 PM CDT
Astronomical Twilight 4:16 AM CDT 9:38 PM CDT
Moon 6:22 PM CDT (7/14) 3:55 AM CDT (7/14)
Length of Visible Light 15h 01m
Length of Day
14h 05m
Waxing Gibbous, 95% of the Moon is Illuminated
Jul 14
Waxing Gibbous
Jul 16
Full
Jul 24
Last Quarter
Jul 31
New
Aug 7
First Quarter

Hourly Weather History & Observations

Time (CDT) Temp. Heat Index Dew Point Humidity Pressure Visibility Wind Dir Wind Speed Gust Speed Precip Events Conditions
12:15 AM 73.6 °F - 72.3 °F 96% 30.08 in 7.0 mi Calm Calm - N/A   Clear
12:35 AM 73.6 °F - 72.5 °F 96% 30.08 in 7.0 mi Calm Calm - N/A   Clear
12:55 AM 73.6 °F - 72.5 °F 96% 30.07 in 7.0 mi Calm Calm - N/A   Clear
1:15 AM 73.6 °F - 72.5 °F 96% 30.07 in 7.0 mi Calm Calm - N/A   Clear
1:35 AM 73.4 °F - 72.0 °F 95% 30.07 in 7.0 mi Calm Calm - N/A   Clear
1:55 AM 73.4 °F - 71.8 °F 95% 30.08 in 7.0 mi Calm Calm - N/A   Scattered Clouds
2:15 AM 73.4 °F - 71.6 °F 94% 30.07 in 7.0 mi Calm Calm - N/A   Mostly Cloudy
2:35 AM 73.4 °F - 71.6 °F 94% 30.07 in 7.0 mi Calm Calm - N/A   Overcast
2:55 AM 73.0 °F - 71.2 °F 94% 30.07 in 5.0 mi Calm Calm - N/A   Scattered Clouds
3:15 AM 73.0 °F - 71.2 °F 94% 30.07 in 7.0 mi Calm Calm - N/A   Clear
3:35 AM 72.9 °F - 70.9 °F 93% 30.07 in 7.0 mi Calm Calm - N/A   Clear
3:55 AM 72.9 °F - 70.9 °F 93% 30.07 in 7.0 mi Calm Calm - N/A   Clear
4:15 AM 72.9 °F - 70.7 °F 93% 30.07 in 7.0 mi Calm Calm - N/A   Clear
4:35 AM 72.9 °F - 70.7 °F 93% 30.07 in 7.0 mi Calm Calm - N/A   Clear
4:55 AM 72.9 °F - 70.7 °F 93% 30.07 in 7.0 mi Calm Calm - N/A   Clear
5:15 AM 72.7 °F - 70.7 °F 93% 30.06 in 7.0 mi Calm Calm - N/A   Clear
5:35 AM 72.5 °F - 70.7 °F 94% 30.07 in 7.0 mi Calm Calm - N/A   Scattered Clouds
5:55 AM 72.5 °F - 70.9 °F 95% 30.07 in 7.0 mi Calm Calm - N/A   Scattered Clouds
6:15 AM 72.5 °F - 70.9 °F 95% 30.07 in 7.0 mi Calm Calm - N/A   Scattered Clouds
6:35 AM 72.9 °F - 71.4 °F 95% 30.08 in 7.0 mi Calm Calm - N/A   Mostly Cloudy
6:55 AM 73.6 °F - 71.8 °F 94% 30.09 in 7.0 mi Calm Calm - N/A   Overcast
7:15 AM 74.8 °F - 72.7 °F 93% 30.09 in 7.0 mi East 4.6 mph - N/A   Overcast
7:35 AM 75.6 °F - 73.2 °F 92% 30.10 in 5.0 mi ESE 5.8 mph - N/A   Overcast
7:55 AM 76.3 °F - 73.4 °F 91% 30.12 in 5.0 mi SE 5.8 mph - N/A   Overcast
8:15 AM 77.0 °F - 73.6 °F 89% 30.12 in 5.0 mi ESE 4.6 mph - N/A   Overcast
8:35 AM 77.2 °F - 73.8 °F 89% 30.13 in 5.0 mi ESE 5.8 mph - N/A   Overcast
8:55 AM 77.9 °F - 74.3 °F 89% 30.13 in 7.0 mi SE 5.8 mph - N/A   Overcast
9:15 AM 78.6 °F - 74.3 °F 87% 30.13 in 5.0 mi ESE 5.8 mph - N/A   Haze
9:35 AM 78.8 °F - 74.5 °F 87% 30.13 in 7.0 mi ESE 9.2 mph - N/A   Overcast
9:55 AM 79.5 °F - 74.8 °F 86% 30.12 in 5.0 mi ESE 6.9 mph - N/A   Haze
10:15 AM 80.6 °F 86.0 °F 75.0 °F 83% 30.12 in 5.0 mi ESE 6.9 mph - N/A   Haze
10:35 AM 81.5 °F 87.8 °F 75.2 °F 81% 30.12 in 5.0 mi East 6.9 mph - N/A   Haze
10:55 AM 82.2 °F 89.3 °F 75.4 °F 80% 30.12 in 5.0 mi SE 8.1 mph - N/A   Haze
11:15 AM 82.6 °F 89.7 °F 75.2 °F 78% 30.12 in 5.0 mi East 8.1 mph - N/A   Haze
11:35 AM 82.8 °F 90.1 °F 75.2 °F 78% 30.12 in 7.0 mi ESE 5.8 mph - N/A   Scattered Clouds
11:55 AM 82.9 °F 90.2 °F 75.2 °F 77% 30.12 in 7.0 mi East 4.6 mph - N/A   Scattered Clouds
12:15 PM 83.7 °F 91.7 °F 75.2 °F 76% 30.12 in 7.0 mi East 3.5 mph - N/A   Scattered Clouds
12:35 PM 84.6 °F 92.8 °F 75.2 °F 73% 30.11 in 7.0 mi East 4.6 mph - N/A   Scattered Clouds
12:55 PM 84.7 °F 93.2 °F 75.4 °F 73% 30.11 in 7.0 mi East 5.8 mph - N/A   Mostly Cloudy
1:15 PM 85.1 °F 94.1 °F 75.4 °F 73% 30.10 in 7.0 mi East 4.6 mph - N/A   Mostly Cloudy
1:35 PM 84.4 °F 92.7 °F 75.4 °F 74% 30.09 in 7.0 mi East 4.6 mph - N/A   Mostly Cloudy
1:55 PM 84.4 °F 93.1 °F 75.6 °F 75% 30.09 in 7.0 mi ESE 4.6 mph - N/A   Mostly Cloudy
2:15 PM 83.7 °F 91.7 °F 75.6 °F 76% 30.10 in 7.0 mi Calm Calm - N/A   Mostly Cloudy
2:35 PM 74.7 °F - 69.8 °F 85% 30.11 in 7.0 mi West 4.6 mph - N/A Rain Rain
2:55 PM 74.7 °F - 70.0 °F 85% 30.09 in 10.0 mi Calm Calm - N/A Rain Rain
3:15 PM 73.9 °F - 71.1 °F 91% 30.12 in 10.0 mi SSW 6.9 mph - N/A Rain Heavy Rain
3:35 PM 72.3 °F - 70.3 °F 93% 30.11 in 1.5 mi ENE 4.6 mph - N/A Rain Light Rain
3:55 PM 72.9 °F - 71.1 °F 94% 30.10 in 7.0 mi NNE 4.6 mph - N/A   Mostly Cloudy
4:15 PM 72.7 °F - 71.2 °F 95% 30.10 in 7.0 mi NNW 3.5 mph - N/A   Mostly Cloudy
4:35 PM 72.9 °F - 71.6 °F 96% 30.12 in 7.0 mi SE 5.8 mph - N/A Rain Rain
4:55 PM 72.9 °F - 71.8 °F 96% 30.12 in 7.0 mi Calm Calm - N/A Rain Rain
5:15 PM 72.7 °F - 72.0 °F 98% 30.11 in 5.0 mi Calm Calm - N/A Rain Rain
5:35 PM 72.9 °F - 72.1 °F 98% 30.11 in 7.0 mi Calm Calm - N/A Rain Rain
5:55 PM 73.4 °F - 73.2 °F 99% 30.10 in 7.0 mi Calm Calm - N/A Rain Light Rain
6:15 PM 72.9 °F - 72.9 °F 100% 30.09 in 5.0 mi Calm Calm - N/A Rain Heavy Rain
6:35 PM 73.0 °F - 73.0 °F 100% 30.09 in 7.0 mi ENE 3.5 mph - N/A Rain Light Rain
6:55 PM 73.2 °F - 73.2 °F 100% 30.10 in 7.0 mi Calm Calm - N/A Rain Light Rain
7:15 PM 73.4 °F - 73.4 °F 100% 30.13 in 5.0 mi South 5.8 mph - N/A Rain Light Rain
7:35 PM 73.0 °F - 73.0 °F 100% 30.11 in 1.5 mi ENE 3.5 mph - N/A Rain Rain
7:55 PM 72.9 °F - 72.9 °F 100% 30.12 in 10.0 mi Calm Calm - N/A Rain Rain
8:15 PM 72.9 °F - 72.9 °F 100% 30.11 in 10.0 mi Calm Calm - N/A Rain Rain
8:35 PM 72.5 °F - 72.5 °F 100% 30.12 in 5.0 mi Calm Calm - N/A Rain Heavy Rain
8:55 PM 72.5 °F - 72.5 °F 100% 30.11 in 7.0 mi Calm Calm - N/A Rain Rain
9:15 PM 72.5 °F - 72.5 °F 100% 30.10 in 10.0 mi Calm Calm - N/A Rain Light Rain
9:35 PM 72.5 °F - 72.5 °F 100% 30.10 in 10.0 mi Calm Calm - N/A Rain Light Rain
9:55 PM 72.5 °F - 72.5 °F 100% 30.09 in 7.0 mi NNE 3.5 mph - N/A Rain Rain
10:15 PM 72.5 °F - 72.5 °F 100% 30.09 in 7.0 mi ENE 3.5 mph - N/A   Mostly Cloudy
10:35 PM 72.0 °F - 72.0 °F 100% 30.09 in 7.0 mi East 3.5 mph - N/A Rain Light Rain
10:55 PM 71.6 °F - 71.6 °F 100% 30.09 in 7.0 mi Calm Calm - N/A   Clear
11:15 PM 71.4 °F - 71.4 °F 100% 30.08 in 7.0 mi Calm Calm - N/A   Clear
11:35 PM 71.4 °F - 71.4 °F 100% 30.08 in 7.0 mi Calm Calm - N/A   Clear
11:55 PM 71.6 °F - 71.6 °F 100% 30.08 in 7.0 mi Calm Calm - N/A   Clear